Вернуться в каталог

LKW-2

АктивенВоенныеSSO
NORAD 43080·PAYLOAD·🇨🇳 China

Запущен Dec 23, 2017 с Jiuquan Satellite Launch Center

Loading…

Ближайшие Пролёты (ближайшие 24 часа)

TLE

СвежийSource: Space-Track

Эпоха: Sep 14, 2026, 14:47 UTC

1 43080U 17084A   26257.61610034  .00004143  00000-0  15730-3 0  9999
2 43080  97.1120 293.2606 0000516 355.0898   5.0336 15.27350308485339

Отслеживайте LKW-2 в реальном времени с AllMySat

Download on the App Store